Location: El Atico
(3.0014°N, 75.4378°W)
Time: 12:14:28
(UTC+00:00)

CARTOSAT-1 - Pass Details

Date: 09 December 2025
Orbit: 595 x 597 km, 97.5° (Epoch: 25 January)

Event Time Altitude Azimuth Distance (km) Brightness Sun altitude
Rises 23:49:56 0° 151° (SSE) 2,831 6.9 -13.9°
Reaches altitude 10° 23:52:18 10° 140° (SE) 1,929 5.9 -14.5°
Maximum altitude 23:55:59 30° 78° (ENE) 1,063 4.2 -15.3°
Enters shadow 23:57:16 25° 46° (NE) 1,199 4.5 -15.6°
